| time (UTC) | temp F | wind direction | speed knots | gust knots | rain 1hr in | rain 24hr in | rain mn in | humidity % | barometer mb |
| 20260510194705 | 50 | 340 | 0.0 | 3.5 | 0.00 | 0.00 | 0.00 | 66 | 1011.2 |
| 20260510194204 | 50 | 348 | 0.0 | 3.5 | 0.00 | 0.00 | 0.00 | 67 | 1011.1 |
| 20260510193704 | 50 | 350 | 0.0 | 3.5 | 0.00 | 0.00 | 0.00 | 67 | 1011.1 |
| 20260510193214 | 50 | 312 | 0.0 | 1.7 | 0.00 | 0.00 | 0.00 | 67 | 1011.0 |
| 20260510192705 | 51 | 312 | 0.0 | 1.7 | 0.00 | 0.00 | 0.00 | 67 | 1011.1 |
| 20260510192204 | 51 | 312 | 0.0 | 1.7 | 0.00 | 0.00 | 0.00 | 66 | 1010.9 |
| 20260510191205 | 51 | 312 | 0.9 | 1.7 | 0.00 | 0.00 | 0.00 | 66 | 1011.0 |
| 20260510190704 | 51 | 310 | 0.0 | 1.7 | 0.00 | 0.00 | 0.00 | 65 | 1011.0 |
| 20260510190204 | 52 | 310 | 0.9 | 2.6 | 0.00 | 0.00 | 0.00 | 64 | 1011.0 |
| 20260510185705 | 52 | 310 | 0.0 | 2.6 | 0.00 | 0.00 | 0.00 | 64 | 1011.0 |
| 20260510185205 | 52 | 310 | 0.0 | 2.6 | 0.00 | 0.00 | 0.00 | 63 | 1011.0 |
| 20260510184704 | 53 | 333 | 0.0 | 2.6 | 0.00 | 0.00 | 0.00 | 64 | 1011.1 |
| 20260510184204 | 53 | 333 | 0.9 | 2.6 | 0.00 | 0.00 | 0.00 | 64 | 1011.1 |
| 20260510183705 | 53 | 331 | 0.9 | 2.6 | 0.00 | 0.00 | 0.00 | 64 | 1011.1 |
| 20260510183204 | 54 | 333 | 0.0 | 4.3 | 0.00 | 0.00 | 0.00 | 64 | 1011.2 |
| 20260510182704 | 54 | 333 | 0.9 | 4.3 | 0.00 | 0.00 | 0.00 | 63 | 1011.3 |
| 20260510182205 | 54 | 334 | 0.9 | 4.3 | 0.00 | 0.00 | 0.00 | 63 | 1011.3 |
| 20260510181704 | 54 | 354 | 1.7 | 2.6 | 0.00 | 0.00 | 0.00 | 63 | 1011.3 |
| 20260510181205 | 54 | 348 | 0.9 | 2.6 | 0.00 | 0.00 | 0.00 | 65 | 1011.4 |
| 20260510180704 | 54 | 354 | 0.9 | 2.6 | 0.00 | 0.00 | 0.00 | 65 | 1011.4 |
| 20260510180204 | 54 | 358 | 0.9 | 2.6 | 0.00 | 0.00 | 0.00 | 65 | 1011.4 |
| 20260510175204 | 54 | 340 | 0.9 | 3.5 | 0.00 | 0.00 | 0.00 | 65 | 1011.4 |
| 20260510174704 | 54 | 345 | 0.9 | 3.5 | 0.00 | 0.00 | 0.00 | 64 | 1011.5 |
| 20260510174204 | 53 | 337 | 0.9 | 3.5 | 0.00 | 0.00 | 0.00 | 64 | 1011.5 |
| 20260510173704 | 54 | 337 | 0.9 | 2.6 | 0.00 | 0.00 | 0.00 | 65 | 1011.6 |
| 20260510173204 | 54 | 343 | 0.9 | 2.6 | 0.00 | 0.00 | 0.00 | 66 | 1011.6 |
| 20260510172704 | 54 | 344 | 0.9 | 2.6 | 0.00 | 0.00 | 0.00 | 66 | 1011.7 |
| 20260510171705 | 54 | 336 | 0.9 | 3.5 | 0.00 | 0.00 | 0.00 | 65 | 1011.7 |
| 20260510170705 | 54 | 327 | 0.0 | 4.3 | 0.00 | 0.00 | 0.00 | 65 | 1011.8 |
| 20260510165704 | 54 | 310 | 0.0 | 4.3 | 0.00 | 0.00 | 0.00 | 66 | 1011.8 |
| 20260510165203 | 54 | 310 | 0.0 | 4.3 | 0.00 | 0.00 | 0.00 | 65 | 1011.8 |
| 20260510164705 | 54 | 309 | 0.9 | 4.3 | 0.00 | 0.00 | 0.00 | 65 | 1011.7 |
| 20260510164203 | 54 | 296 | 0.9 | 4.3 | 0.00 | 0.00 | 0.00 | 65 | 1011.8 |
| 20260510163704 | 54 | 0 | 0.9 | 4.3 | 0.00 | 0.00 | 0.00 | 65 | 1011.8 |
| 20260510163204 | 55 | 28 | 0.9 | 3.5 | 0.00 | 0.00 | 0.00 | 64 | 1012.0 |
| 20260510162704 | 55 | 47 | 0.0 | 3.5 | 0.00 | 0.00 | 0.00 | 64 | 1012.0 |
| 20260510162205 | 55 | 63 | 0.9 | 9.6 | 0.00 | 0.00 | 0.00 | 65 | 1012.1 |
| 20260510161705 | 55 | 326 | 0.9 | 9.6 | 0.00 | 0.00 | 0.00 | 65 | 1012.1 |
| 20260510161204 | 55 | 317 | 0.0 | 9.6 | 0.00 | 0.00 | 0.00 | 65 | 1012.2 |
| 20260510160704 | 55 | 337 | 1.7 | 4.3 | 0.00 | 0.00 | 0.00 | 65 | 1012.3 |
| 20260510155705 | 54 | 305 | 0.0 | 4.3 | 0.00 | 0.00 | 0.00 | 66 | 1012.3 |
| 20260510154704 | 54 | 347 | 0.9 | 3.5 | 0.00 | 0.00 | 0.00 | 67 | 1012.4 |
| 20260510154207 | 54 | 351 | 0.9 | 3.5 | 0.00 | 0.00 | 0.00 | 68 | 1012.5 |
| 20260510153704 | 54 | 354 | 0.9 | 2.6 | 0.00 | 0.00 | 0.00 | 68 | 1012.5 |
| 20260510152704 | 54 | 288 | 0.9 | 2.6 | 0.00 | 0.00 | 0.00 | 70 | 1012.6 |
| 20260510152205 | 54 | 314 | 0.0 | 3.5 | 0.00 | 0.00 | 0.00 | 71 | 1012.7 |
| 20260510151704 | 54 | 313 | 0.9 | 3.5 | 0.00 | 0.00 | 0.00 | 72 | 1012.7 |
| 20260510151204 | 53 | 313 | 0.0 | 3.5 | 0.00 | 0.00 | 0.00 | 71 | 1012.9 |
| 20260510150704 | 53 | 313 | 0.9 | 4.3 | 0.00 | 0.00 | 0.00 | 71 | 1012.9 |
| 20260510150204 | 53 | 329 | 0.0 | 4.3 | 0.00 | 0.00 | 0.00 | 71 | 1013.0 |
| 20260510145703 | 54 | 326 | 0.9 | 4.3 | 0.00 | 0.00 | 0.00 | 71 | 1013.1 |
| 20260510144705 | 54 | 306 | 0.0 | 3.5 | 0.00 | 0.00 | 0.00 | 70 | 1013.1 |
| 20260510143703 | 54 | 326 | 0.9 | 3.5 | 0.00 | 0.00 | 0.00 | 69 | 1013.3 |
| 20260510143204 | 54 | 327 | 0.9 | 3.5 | 0.00 | 0.00 | 0.00 | 69 | 1013.2 |
| 20260510142205 | 54 | 323 | 0.9 | 2.6 | 0.00 | 0.00 | 0.00 | 70 | 1013.4 |
| 20260510141704 | 54 | 323 | 0.9 | 2.6 | 0.00 | 0.00 | 0.00 | 69 | 1013.3 |
| 20260510141204 | 54 | 337 | 0.9 | 3.5 | 0.00 | 0.00 | 0.00 | 69 | 1013.4 |
| 20260510140704 | 54 | 330 | 0.9 | 3.5 | 0.00 | 0.00 | 0.00 | 69 | 1013.5 |
| 20260510140205 | 54 | 327 | 0.0 | 4.3 | 0.00 | 0.00 | 0.00 | 70 | 1013.5 |
| 20260510135704 | 54 | 324 | 0.9 | 4.3 | 0.00 | 0.00 | 0.00 | 69 | 1013.4 |
| 20260510135208 | 54 | 350 | 1.7 | 4.3 | 0.00 | 0.00 | 0.00 | 69 | 1013.5 |
| 20260510134205 | 55 | 347 | 0.0 | 4.3 | 0.00 | 0.00 | 0.00 | 69 | 1013.5 |
| 20260510133704 | 55 | 334 | 0.9 | 4.3 | 0.00 | 0.00 | 0.00 | 69 | 1013.6 |
| 20260510133207 | 55 | 338 | 0.0 | 4.3 | 0.00 | 0.00 | 0.00 | 69 | 1013.5 |
| 20260510132703 | 55 | 337 | 0.9 | 6.1 | 0.00 | 0.00 | 0.00 | 69 | 1013.5 |
| 20260510132204 | 55 | 358 | 1.7 | 6.1 | 0.00 | 0.00 | 0.00 | 69 | 1013.6 |
| 20260510131704 | 55 | 337 | 0.0 | 7.8 | 0.00 | 0.00 | 0.00 | 69 | 1013.7 |
| 20260510131205 | 55 | 336 | 1.7 | 7.8 | 0.00 | 0.00 | 0.00 | 70 | 1013.6 |
| 20260510130705 | 55 | 313 | 1.7 | 5.2 | 0.00 | 0.00 | 0.00 | 70 | 1013.7 |
| 20260510130204 | 55 | 306 | 0.0 | 5.2 | 0.00 | 0.00 | 0.00 | 70 | 1013.8 |
| 20260510125706 | 55 | 323 | 0.9 | 5.2 | 0.00 | 0.00 | 0.00 | 70 | 1013.9 |
| 20260510125204 | 55 | 309 | 0.9 | 5.2 | 0.00 | 0.00 | 0.00 | 70 | 1013.9 |
| 20260510124705 | 55 | 21 | 0.9 | 4.3 | 0.00 | 0.00 | 0.00 | 70 | 1014.0 |
| 20260510124205 | 55 | 31 | 0.9 | 4.3 | 0.00 | 0.00 | 0.00 | 70 | 1014.1 |
| 20260510123704 | 55 | 11 | 0.9 | 4.3 | 0.00 | 0.00 | 0.00 | 69 | 1014.0 |
| 20260510123204 | 55 | 336 | 1.7 | 4.3 | 0.00 | 0.00 | 0.00 | 69 | 1014.1 |
| 20260510121705 | 55 | 289 | 0.9 | 4.3 | 0.00 | 0.00 | 0.00 | 70 | 1014.0 |
| 20260510121205 | 55 | 321 | 1.7 | 4.3 | 0.00 | 0.00 | 0.00 | 69 | 1014.0 |
| 20260510120204 | 55 | 299 | 0.9 | 4.3 | 0.00 | 0.00 | 0.00 | 70 | 1014.2 |
| 20260510115705 | 56 | 327 | 1.7 | 4.3 | 0.00 | 0.00 | 0.00 | 69 | 1014.2 |
| 20260510115204 | 56 | 8 | 0.9 | 4.3 | 0.00 | 0.00 | 0.00 | 70 | 1014.2 |
| 20260510114705 | 56 | 20 | 1.7 | 4.3 | 0.00 | 0.00 | 0.00 | 70 | 1014.2 |
| 20260510114204 | 56 | 347 | 1.7 | 3.5 | 0.00 | 0.00 | 0.00 | 70 | 1014.3 |
| 20260510113705 | 56 | 324 | 1.7 | 5.2 | 0.00 | 0.00 | 0.00 | 71 | 1014.2 |
| 20260510113205 | 56 | 327 | 0.9 | 5.2 | 0.00 | 0.00 | 0.00 | 71 | 1014.2 |
| 20260510112205 | 55 | 0 | 1.7 | 5.2 | 0.00 | 0.00 | 0.00 | 72 | 1014.4 |
| 20260510111705 | 55 | 329 | 0.0 | 5.2 | 0.00 | 0.00 | 0.00 | 72 | 1014.5 |
| 20260510111205 | 55 | 337 | 1.7 | 5.2 | 0.00 | 0.00 | 0.00 | 72 | 1014.6 |
| 20260510110703 | 55 | 350 | 0.9 | 4.3 | 0.00 | 0.00 | 0.00 | 73 | 1014.6 |
| 20260510110205 | 55 | 324 | 0.9 | 3.5 | 0.00 | 0.00 | 0.00 | 73 | 1014.5 |
| 20260510105704 | 55 | 314 | 0.9 | 3.5 | 0.00 | 0.00 | 0.00 | 72 | 1014.5 |
| 20260510105204 | 55 | 320 | 0.0 | 6.1 | 0.00 | 0.00 | 0.00 | 71 | 1014.6 |
| 20260510104704 | 55 | 343 | 1.7 | 6.1 | 0.00 | 0.00 | 0.00 | 71 | 1014.6 |
| 20260510104205 | 55 | 350 | 0.9 | 6.1 | 0.00 | 0.00 | 0.00 | 71 | 1014.6 |
| 20260510103704 | 55 | 347 | 0.9 | 3.5 | 0.00 | 0.00 | 0.00 | 72 | 1014.6 |
| 20260510103204 | 55 | 348 | 0.9 | 3.5 | 0.00 | 0.00 | 0.00 | 72 | 1014.6 |
| 20260510102705 | 55 | 358 | 0.9 | 3.5 | 0.00 | 0.00 | 0.00 | 71 | 1014.6 |
| 20260510102204 | 55 | 0 | 0.0 | 5.2 | 0.00 | 0.00 | 0.00 | 72 | 1014.7 |
| 20260510101704 | 55 | 345 | 0.0 | 6.1 | 0.00 | 0.00 | 0.00 | 72 | 1014.5 |
| 20260510101204 | 55 | 345 | 0.9 | 6.1 | 0.00 | 0.00 | 0.00 | 73 | 1014.6 |
| 20260510100204 | 55 | 320 | 1.7 | 4.3 | 0.00 | 0.00 | 0.00 | 72 | 1014.4 |
| 20260510095705 | 55 | 340 | 1.7 | 4.3 | 0.00 | 0.00 | 0.00 | 72 | 1014.6 |
| 20260510095204 | 55 | 336 | 1.7 | 4.3 | 0.00 | 0.00 | 0.00 | 71 | 1014.5 |
| 20260510094204 | 56 | 305 | 0.9 | 3.5 | 0.00 | 0.00 | 0.00 | 71 | 1014.5 |
| 20260510093706 | 55 | 316 | 0.9 | 3.5 | 0.00 | 0.00 | 0.00 | 71 | 1014.5 |
| 20260510093205 | 55 | 340 | 0.9 | 3.5 | 0.00 | 0.00 | 0.00 | 71 | 1014.6 |
| 20260510092704 | 55 | 319 | 0.9 | 5.2 | 0.00 | 0.00 | 0.00 | 71 | 1014.6 |
| 20260510091704 | 55 | 350 | 1.7 | 4.3 | 0.00 | 0.00 | 0.00 | 71 | 1014.7 |
| 20260510091204 | 55 | 345 | 1.7 | 4.3 | 0.00 | 0.00 | 0.00 | 72 | 1014.7 |
| 20260510090705 | 55 | 316 | 0.9 | 4.3 | 0.00 | 0.00 | 0.00 | 73 | 1014.8 |
| 20260510090204 | 55 | 306 | 0.9 | 4.3 | 0.00 | 0.00 | 0.00 | 74 | 1014.8 |
| 20260510085704 | 54 | 254 | 1.7 | 4.3 | 0.00 | 0.00 | 0.00 | 73 | 1014.9 |
| 20260510085204 | 54 | 6 | 1.7 | 4.3 | 0.00 | 0.00 | 0.00 | 74 | 1015.0 |
| 20260510084704 | 54 | 343 | 0.9 | 4.3 | 0.00 | 0.00 | 0.00 | 74 | 1015.0 |
| 20260510084205 | 54 | 344 | 1.7 | 4.3 | 0.00 | 0.00 | 0.00 | 74 | 1015.0 |
| 20260510083204 | 54 | 323 | 1.7 | 7.8 | 0.00 | 0.00 | 0.00 | 74 | 1015.1 |
| 20260510081205 | 53 | 336 | 0.9 | 3.5 | 0.00 | 0.00 | 0.00 | 78 | 1015.0 |
| 20260510080705 | 53 | 312 | 0.9 | 3.5 | 0.00 | 0.00 | 0.00 | 78 | 1015.0 |
| 20260510080204 | 53 | 309 | 0.9 | 3.5 | 0.00 | 0.00 | 0.00 | 79 | 1015.1 |
| 20260510075704 | 53 | 306 | 1.7 | 4.3 | 0.00 | 0.00 | 0.00 | 79 | 1015.1 |
| 20260510074705 | 53 | 326 | 1.7 | 3.5 | 0.00 | 0.00 | 0.00 | 79 | 1015.0 |
| 20260510074204 | 53 | 327 | 0.9 | 3.5 | 0.00 | 0.00 | 0.00 | 80 | 1015.1 |
| 20260510073704 | 52 | 319 | 0.9 | 3.5 | 0.00 | 0.00 | 0.00 | 80 | 1015.1 |
| 20260510073204 | 52 | 319 | 1.7 | 4.3 | 0.00 | 0.00 | 0.00 | 80 | 1015.1 |
| 20260510072704 | 52 | 331 | 0.9 | 4.3 | 0.00 | 0.00 | 0.00 | 80 | 1015.1 |
| 20260510072205 | 52 | 320 | 0.9 | 2.6 | 0.00 | 0.00 | 0.00 | 81 | 1015.1 |
| 20260510071704 | 52 | 321 | 0.0 | 3.5 | 0.00 | 0.00 | 0.00 | 81 | 1015.0 |
| 20260510071204 | 52 | 321 | 0.9 | 3.5 | 0.00 | 0.00 | 0.00 | 81 | 1015.0 |
| 20260510070704 | 51 | 354 | 0.0 | 3.5 | 0.00 | 0.00 | 0.00 | 81 | 1015.0 |
| 20260510065705 | 51 | 353 | 0.9 | 4.3 | 0.00 | 0.00 | 0.00 | 82 | 1015.1 |
| 20260510065204 | 51 | 320 | 0.9 | 4.3 | 0.00 | 0.00 | 0.00 | 82 | 1015.1 |
| 20260510064204 | 51 | 279 | 1.7 | 6.1 | 0.00 | 0.00 | 0.00 | 82 | 1015.1 |
| 20260510063709 | 51 | 323 | 0.9 | 6.1 | 0.00 | 0.00 | 0.00 | 82 | 1015.2 |
| 20260510063205 | 51 | 296 | 0.9 | 6.1 | 0.00 | 0.00 | 0.00 | 82 | 1015.0 |
| 20260510062706 | 51 | 319 | 0.0 | 2.6 | 0.00 | 0.00 | 0.00 | 82 | 1015.1 |
| 20260510062203 | 51 | 319 | 0.0 | 4.3 | 0.00 | 0.00 | 0.00 | 82 | 1015.0 |
| 20260510061705 | 51 | 312 | 0.0 | 6.1 | 0.00 | 0.00 | 0.00 | 82 | 1015.0 |
| 20260510061204 | 50 | 312 | 0.9 | 6.1 | 0.00 | 0.00 | 0.00 | 83 | 1014.9 |
| 20260510060705 | 50 | 317 | 1.7 | 6.1 | 0.00 | 0.00 | 0.00 | 82 | 1014.9 |
| 20260510060204 | 50 | 293 | 1.7 | 5.2 | 0.00 | 0.00 | 0.00 | 83 | 1014.8 |
| 20260510055704 | 50 | 0 | 1.7 | 5.2 | 0.00 | 0.00 | 0.00 | 83 | 1014.8 |
| 20260510055204 | 50 | 329 | 0.0 | 5.2 | 0.00 | 0.00 | 0.00 | 83 | 1014.7 |
| 20260510054705 | 50 | 327 | 0.9 | 5.2 | 0.00 | 0.00 | 0.00 | 83 | 1014.7 |
| 20260510054205 | 50 | 299 | 0.9 | 5.2 | 0.00 | 0.00 | 0.00 | 83 | 1014.7 |
| 20260510053704 | 50 | 293 | 0.9 | 3.5 | 0.00 | 0.00 | 0.00 | 83 | 1014.6 |
| 20260510053204 | 49 | 309 | 0.0 | 3.5 | 0.00 | 0.00 | 0.00 | 83 | 1014.7 |
| 20260510052704 | 49 | 317 | 0.9 | 3.5 | 0.00 | 0.00 | 0.00 | 83 | 1014.6 |
| 20260510052204 | 49 | 303 | 0.0 | 3.5 | 0.00 | 0.00 | 0.00 | 83 | 1014.6 |
| 20260510051705 | 49 | 303 | 0.0 | 3.5 | 0.00 | 0.00 | 0.00 | 83 | 1014.6 |
| 20260510051204 | 49 | 302 | 0.9 | 3.5 | 0.00 | 0.00 | 0.00 | 83 | 1014.7 |
| 20260510050705 | 49 | 334 | 0.0 | 4.3 | 0.00 | 0.00 | 0.00 | 83 | 1014.7 |
| 20260510050204 | 49 | 338 | 0.9 | 4.3 | 0.00 | 0.00 | 0.00 | 83 | 1014.5 |
| 20260510045704 | 49 | 310 | 0.9 | 4.3 | 0.00 | 0.00 | 0.00 | 83 | 1014.6 |
| 20260510044205 | 49 | 319 | 0.0 | 4.3 | 0.00 | 0.00 | 0.00 | 83 | 1014.6 |
| 20260510043705 | 49 | 319 | 0.9 | 2.6 | 0.00 | 0.00 | 0.00 | 83 | 1014.7 |
| 20260510043205 | 49 | 329 | 0.9 | 3.5 | 0.00 | 0.00 | 0.00 | 83 | 1014.7 |
| 20260510042705 | 49 | 326 | 0.0 | 3.5 | 0.00 | 0.00 | 0.00 | 83 | 1014.7 |
| 20260510042204 | 49 | 326 | 0.0 | 3.5 | 0.00 | 0.00 | 0.00 | 82 | 1014.7 |
| 20260510041704 | 49 | 326 | 0.0 | 4.3 | 0.00 | 0.00 | 0.00 | 82 | 1014.8 |
| 20260510041204 | 49 | 326 | 0.0 | 4.3 | 0.00 | 0.00 | 0.00 | 82 | 1014.8 |
| 20260510040705 | 49 | 336 | 0.0 | 4.3 | 0.00 | 0.00 | 0.00 | 82 | 1014.8 |
| 20260510040205 | 49 | 298 | 0.9 | 4.3 | 0.00 | 0.00 | 0.00 | 82 | 1014.9 |
| 20260510035707 | 49 | 341 | 0.9 | 3.5 | 0.00 | 0.00 | 0.00 | 82 | 1014.9 |
| 20260510035204 | 49 | 307 | 0.0 | 2.6 | 0.00 | 0.00 | 0.00 | 82 | 1014.9 |
| 20260510034704 | 49 | 0 | 0.0 | 4.3 | 0.00 | 0.00 | 0.00 | 82 | 1015.0 |
| 20260510034204 | 49 | 348 | 0.0 | 4.3 | 0.00 | 0.00 | 0.00 | 82 | 1015.0 |
| 20260510033705 | 49 | 348 | 0.0 | 4.3 | 0.00 | 0.00 | 0.00 | 82 | 1015.0 |
| 20260510033204 | 49 | 292 | 0.9 | 4.3 | 0.00 | 0.00 | 0.00 | 82 | 1015.1 |
| 20260510032704 | 49 | 288 | 0.9 | 4.3 | 0.00 | 0.00 | 0.00 | 82 | 1015.1 |
| 20260510032204 | 49 | 0 | 0.9 | 4.3 | 0.00 | 0.00 | 0.00 | 82 | 1015.1 |
| 20260510031704 | 49 | 0 | 0.0 | 4.3 | 0.00 | 0.00 | 0.00 | 82 | 1015.1 |
| 20260510031204 | 49 | 4 | 1.7 | 3.5 | 0.00 | 0.00 | 0.00 | 83 | 1015.1 |
| 20260510030704 | 49 | 337 | 0.9 | 1.7 | 0.00 | 0.00 | 0.00 | 83 | 1015.3 |
| 20260510025706 | 49 | 323 | 0.0 | 5.2 | 0.00 | 0.00 | 0.00 | 83 | 1015.2 |
| 20260510024204 | 49 | 299 | 0.9 | 6.1 | 0.00 | 0.00 | 0.00 | 83 | 1015.3 |
| 20260510023705 | 49 | 319 | 0.9 | 3.5 | 0.00 | 0.00 | 0.00 | 83 | 1015.3 |
| 20260510023204 | 49 | 317 | 0.9 | 4.3 | 0.00 | 0.00 | 0.00 | 83 | 1015.2 |
| 20260510022704 | 49 | 337 | 0.0 | 4.3 | 0.00 | 0.00 | 0.00 | 83 | 1015.2 |
| 20260510022204 | 49 | 345 | 0.9 | 4.3 | 0.00 | 0.00 | 0.00 | 83 | 1015.1 |
| 20260510021204 | 49 | 0 | 0.9 | 4.3 | 0.00 | 0.00 | 0.00 | 83 | 1015.1 |
| 20260510015704 | 49 | 306 | 0.0 | 3.5 | 0.00 | 0.00 | 0.00 | 82 | 1015.1 |
| 20260510014703 | 50 | 316 | 0.0 | 1.7 | 0.00 | 0.00 | 0.00 | 82 | 1015.2 |
| 20260510014204 | 50 | 316 | 0.0 | 1.7 | 0.00 | 0.00 | 0.00 | 82 | 1015.3 |
| 20260510013704 | 50 | 316 | 0.0 | 1.7 | 0.00 | 0.00 | 0.00 | 82 | 1015.4 |
| 20260510013205 | 50 | 316 | 0.0 | 1.7 | 0.00 | 0.00 | 0.00 | 82 | 1015.4 |
| 20260510012705 | 50 | 316 | 0.0 | 1.7 | 0.00 | 0.00 | 0.00 | 82 | 1015.3 |
| 20260510011704 | 50 | 319 | 0.0 | 1.7 | 0.00 | 0.00 | 0.00 | 81 | 1015.4 |
| 20260510011204 | 50 | 319 | 0.0 | 1.7 | 0.00 | 0.00 | 0.00 | 81 | 1015.3 |
| 20260510010705 | 50 | 319 | 0.0 | 2.6 | 0.00 | 0.00 | 0.00 | 80 | 1015.3 |
| 20260510010205 | 50 | 320 | 0.0 | 2.6 | 0.00 | 0.00 | 0.00 | 80 | 1015.2 |
| 20260510005704 | 51 | 320 | 0.0 | 2.6 | 0.00 | 0.00 | 0.00 | 79 | 1015.2 |
| 20260510005207 | 51 | 329 | 0.0 | 1.7 | 0.00 | 0.00 | 0.00 | 79 | 1015.2 |
| 20260510004704 | 51 | 330 | 0.0 | 1.7 | 0.00 | 0.00 | 0.00 | 78 | 1015.1 |
| 20260510004207 | 51 | 331 | 0.0 | 1.7 | 0.00 | 0.00 | 0.00 | 78 | 1015.1 |
| 20260510003704 | 51 | 334 | 0.0 | 3.5 | 0.00 | 0.00 | 0.00 | 77 | 1015.1 |
| 20260510002704 | 51 | 334 | 0.0 | 3.5 | 0.00 | 0.00 | 0.00 | 76 | 1015.2 |
| 20260510001704 | 51 | 25 | 0.0 | 2.6 | 0.00 | 0.00 | 0.00 | 74 | 1015.4 |
| 20260510001204 | 52 | 25 | 0.0 | 2.6 | 0.00 | 0.00 | 0.00 | 74 | 1015.3 |
| 20260510000705 | 52 | 56 | 0.0 | 2.6 | 0.00 | 0.00 | 0.00 | 74 | 1015.3 |
| 20260510000205 | 52 | 75 | 0.0 | 2.6 | 0.00 | 0.00 | 0.00 | 74 | 1015.3 |
| 20260509235204 | 52 | 79 | 0.0 | 1.7 | 0.00 | 0.00 | 0.00 | 75 | 1015.3 |
| 20260509234707 | 52 | 79 | 0.0 | 1.7 | 0.00 | 0.00 | 0.00 | 75 | 1015.3 |
| 20260509234204 | 52 | 85 | 0.0 | 1.7 | 0.00 | 0.00 | 0.00 | 75 | 1015.2 |
| 20260509233704 | 52 | 85 | 0.0 | 1.7 | 0.00 | 0.00 | 0.00 | 75 | 1015.1 |
| 20260509233205 | 52 | 85 | 0.0 | 2.6 | 0.00 | 0.00 | 0.00 | 75 | 1015.3 |
| 20260509232204 | 53 | 86 | 0.0 | 2.6 | 0.00 | 0.00 | 0.00 | 75 | 1015.5 |
| 20260509231704 | 53 | 97 | 0.0 | 1.7 | 0.00 | 0.00 | 0.00 | 74 | 1015.4 |
| 20260509230705 | 53 | 97 | 0.0 | 1.7 | 0.00 | 0.00 | 0.00 | 73 | 1015.5 |
| 20260509230204 | 53 | 97 | 0.0 | 1.7 | 0.00 | 0.00 | 0.00 | 72 | 1015.4 |
| 20260509225704 | 53 | 97 | 0.0 | 0.9 | 0.00 | 0.00 | 0.00 | 72 | 1015.5 |
| 20260509225205 | 53 | 97 | 0.0 | 0.9 | 0.00 | 0.00 | 0.00 | 71 | 1015.4 |
| 20260509224704 | 53 | 97 | 0.0 | 0.9 | 0.00 | 0.00 | 0.00 | 71 | 1015.3 |
| 20260509223204 | 53 | 97 | 0.0 | 1.7 | 0.00 | 0.00 | 0.00 | 70 | 1015.3 |
| 20260509222706 | 53 | 97 | 0.0 | 1.7 | 0.00 | 0.00 | 0.00 | 69 | 1015.2 |
| 20260509222204 | 54 | 97 | 0.0 | 1.7 | 0.00 | 0.00 | 0.00 | 69 | 1015.2 |
| 20260509221704 | 54 | 96 | 0.0 | 1.7 | 0.00 | 0.00 | 0.00 | 68 | 1015.3 |
| 20260509221205 | 54 | 97 | 0.0 | 1.7 | 0.00 | 0.00 | 0.00 | 67 | 1015.2 |
| 20260509220705 | 54 | 97 | 0.0 | 1.7 | 0.00 | 0.00 | 0.00 | 67 | 1015.4 |
| 20260509220204 | 54 | 97 | 0.0 | 1.7 | 0.00 | 0.00 | 0.00 | 66 | 1015.3 |
| 20260509215704 | 54 | 96 | 0.0 | 0.9 | 0.00 | 0.00 | 0.00 | 66 | 1015.3 |
| 20260509215205 | 54 | 96 | 0.0 | 0.9 | 0.00 | 0.00 | 0.00 | 65 | 1015.3 |
| 20260509214705 | 54 | 96 | 0.0 | 0.9 | 0.00 | 0.00 | 0.00 | 65 | 1015.3 |
| 20260509214205 | 54 | 96 | 0.0 | 0.9 | 0.00 | 0.00 | 0.00 | 64 | 1015.4 |
| 20260509213705 | 54 | 96 | 0.0 | 0.9 | 0.00 | 0.00 | 0.00 | 63 | 1015.3 |
| 20260509213204 | 55 | 96 | 0.0 | 0.9 | 0.00 | 0.00 | 0.00 | 63 | 1015.3 |
| 20260509212704 | 55 | 96 | 0.0 | 0.9 | 0.00 | 0.00 | 0.00 | 63 | 1015.2 |
| 20260509212205 | 55 | 96 | 0.0 | 0.9 | 0.00 | 0.00 | 0.00 | 62 | 1015.2 |
| 20260509211705 | 55 | 96 | 0.0 | 0.9 | 0.00 | 0.00 | 0.00 | 62 | 1015.2 |
| 20260509211204 | 55 | 96 | 0.0 | 0.9 | 0.00 | 0.00 | 0.00 | 61 | 1015.1 |
| 20260509210704 | 55 | 96 | 0.0 | 0.9 | 0.00 | 0.00 | 0.00 | 61 | 1015.0 |
| 20260509210204 | 55 | 96 | 0.0 | 0.9 | 0.00 | 0.00 | 0.00 | 60 | 1014.8 |
| 20260509204704 | 56 | 96 | 0.0 | 1.7 | 0.00 | 0.00 | 0.00 | 59 | 1014.9 |
| 20260509204204 | 56 | 96 | 0.0 | 1.7 | 0.00 | 0.00 | 0.00 | 59 | 1014.9 |
| 20260509203205 | 56 | 96 | 0.0 | 0.9 | 0.00 | 0.00 | 0.00 | 59 | 1014.8 |
| 20260509202704 | 56 | 96 | 0.0 | 0.9 | 0.00 | 0.00 | 0.00 | 58 | 1014.7 |
| 20260509202206 | 56 | 96 | 0.0 | 0.9 | 0.00 | 0.00 | 0.00 | 58 | 1014.8 |
| 20260509201704 | 57 | 96 | 0.0 | 1.7 | 0.00 | 0.00 | 0.00 | 58 | 1014.7 |
| 20260509201205 | 57 | 96 | 0.0 | 1.7 | 0.00 | 0.00 | 0.00 | 57 | 1014.8 |
| 20260509200704 | 57 | 96 | 0.0 | 2.6 | 0.00 | 0.00 | 0.00 | 57 | 1014.7 |
| 20260509200204 | 57 | 96 | 0.0 | 2.6 | 0.00 | 0.00 | 0.00 | 57 | 1014.7 |
| 20260509195704 | 57 | 96 | 0.0 | 2.6 | 0.00 | 0.00 | 0.00 | 57 | 1014.7 |
| 20260509195204 | 57 | 106 | 0.9 | 1.7 | 0.00 | 0.00 | 0.00 | 57 | 1014.7 |